Location: ??????
(44.5958°N, 34.0092°E)
Time: 01:34:16
(UTC+00:00)

STARLINK-1277 - Pass Details

Date: 06 June 2020
Orbit: 548 x 550 km, 53.0° (Epoch: 05 July)

Event Time Altitude Azimuth Distance (km) Brightness Sun altitude
Exits shadow 00:55:40 - 256° (WSW) 1,886 5.8 -9.6°
Reaches altitude 10° 00:55:50 10° 257° (WSW) 1,818 5.8 -9.6°
Maximum altitude 00:59:53 51° 334° (NNW) 693 4.3 -9.1°
Drops below altitude 10° 01:03:56 10° 51° (NE) 1,826 8.0 -8.6°
Sets 01:06:13 0° 57° (ENE) 2,722 9.3 -8.3°
